Tracking 18942 objects as of 18-Jan-2018
HD Live streaming from Space Station
objects crossing your sky now

FLOCK 2K 31

Track FLOCK 2K 31 now!
10-day predictions
FLOCK 2K 31 is classified as:


NORAD ID: 42869
Int'l Code: 2017-042AW
Perigee: 460.3 km
Apogee: 473.6 km
Inclination: 97.0 °
Period: 93.8 minutes
Semi major axis: 6837 km
RCS: Unknown
Launch date: July 14, 2017
Source: United States (US)
Launch site: TYURATAM MISSILE AND SPACE COMPLEX (TTMTR)
aabbcc
Your satellite tracking list
Your tracking list is empty




NASA's NSSDC Master Catalog

Two Line Element Set (TLE):
1 42869U 17042AW  18017.48404627  .00001961  00000-0  59175-4 0  9993
2 42869  96.9940 281.7103 0009729 301.3481  58.6810 15.35363237 28508
Source of the keplerian elements: AFSPC